Location: Aiyede
(8.4833°N, 4.4500°E)
Time: 09:25:19
(UTC+00:00)

Cosmos 1844 Rocket - Pass Details

Date: 24 September 2020
Orbit: 823 x 846 km, 71.0° (Epoch: 22 October)

Event Time Altitude Azimuth Distance (km) Brightness Sun altitude
Rises 17:44:25 0° 201° (SSW) 3,350 6.1 -2.7°
Reaches altitude 10° 17:46:52 10° 203° (SSW) 2,416 5.4 -3.3°
Maximum altitude 17:52:21 68° 285° (WNW) 881 3.1 -4.7°
Drops below altitude 10° 17:57:51 10° 9° (N) 2,416 5.0 -6.0°
Sets 18:00:18 0° 11° (NNE) 3,349 5.7 -6.6°
